| time (UTC) | temp C | wind direction | speed KPH | gust KPH | rain 1hr cm | rain 24hr cm | rain mn cm | humidity % | barometer mb |
| 20260507100019 | 12 | 34 | 4.8 | 9.7 | 0.00 | 0.03 | 0.00 | 78 | 1016.4 |
| 20260507094547 | 12 | 351 | 3.2 | 11.3 | 0.00 | 0.05 | 0.00 | 78 | 1016.4 |
| 20260507093018 | 12 | 36 | 4.8 | 12.9 | 0.00 | 0.05 | 0.00 | 79 | 1016.3 |
| 20260507091543 | 12 | 21 | 3.2 | 12.9 | 0.00 | 0.05 | 0.00 | 81 | 1016.2 |
| 20260507090009 | 12 | 36 | 6.4 | 11.3 | 0.00 | 0.13 | 0.00 | 80 | 1016.1 |
| 20260507084603 | 12 | 23 | 9.7 | 14.5 | 0.00 | 0.13 | 0.00 | 82 | 1016.0 |
| 20260507083027 | 11 | 21 | 4.8 | 11.3 | 0.00 | 0.13 | 0.00 | 86 | 1016.1 |
| 20260507081508 | 10 | 360 | 4.8 | 8.0 | 0.00 | 0.13 | 0.00 | 91 | 1016.0 |
| 20260507080046 | 10 | 28 | 4.8 | 9.7 | 0.00 | 0.13 | 0.00 | 94 | 1015.9 |
| 20260507074515 | 9 | 18 | 3.2 | 11.3 | 0.00 | 0.15 | 0.00 | 96 | 1015.8 |
| 20260507073102 | 8 | 13 | 3.2 | 11.3 | 0.00 | 0.15 | 0.00 | 97 | 1015.8 |
| 20260507071526 | 8 | 355 | 3.2 | 8.0 | 0.00 | 0.15 | 0.00 | 98 | 1015.7 |
| 20260507070104 | 8 | 351 | 4.8 | 8.0 | 0.00 | 0.15 | 0.00 | 98 | 1015.6 |
| 20260507064540 | 8 | 355 | 1.6 | 4.8 | 0.00 | 0.18 | 0.00 | 98 | 1015.5 |
| 20260507063009 | 7 | 355 | 3.2 | 4.8 | 0.00 | 0.18 | 0.00 | 98 | 1015.4 |
| 20260507061545 | 7 | 355 | 1.6 | 4.8 | 0.00 | 0.18 | 0.00 | 98 | 1015.2 |
| 20260507060016 | 6 | 276 | 0.0 | 0.0 | 0.00 | 0.18 | 0.00 | 97 | 1015.2 |
| 20260507054550 | 6 | 276 | 0.0 | 0.0 | 0.00 | 0.25 | 0.00 | 97 | 1015.0 |
| 20260507053027 | 6 | 276 | 0.0 | 0.0 | 0.00 | 0.25 | 0.00 | 97 | 1014.8 |
| 20260507051602 | 6 | 276 | 0.0 | 1.6 | 0.00 | 0.25 | 0.00 | 97 | 1014.8 |
| 20260507050036 | 5 | 276 | 0.0 | 1.6 | 0.00 | 0.25 | 0.00 | 97 | 1014.6 |
| 20260507044515 | 5 | 276 | 1.6 | 3.2 | 0.00 | 0.36 | 0.00 | 97 | 1014.4 |
| 20260507043101 | 5 | 276 | 0.0 | 1.6 | 0.00 | 0.36 | 0.00 | 97 | 1014.3 |
| 20260507041529 | 5 | 276 | 1.6 | 3.2 | 0.00 | 0.36 | 0.00 | 97 | 1014.2 |
| 20260507040100 | 5 | 276 | 0.0 | 3.2 | 0.00 | 0.36 | 0.00 | 97 | 1014.1 |
| 20260507034541 | 5 | 276 | 0.0 | 3.2 | 0.00 | 0.41 | 0.00 | 97 | 1014.0 |
| 20260507033009 | 5 | 276 | 0.0 | 3.2 | 0.00 | 0.41 | 0.00 | 97 | 1014.0 |
| 20260507031547 | 5 | 276 | 0.0 | 1.6 | 0.00 | 0.41 | 0.00 | 97 | 1014.0 |
| 20260507030025 | 5 | 276 | 0.0 | 1.6 | 0.00 | 0.41 | 0.00 | 96 | 1013.9 |
| 20260507024600 | 5 | 276 | 0.0 | 1.6 | 0.00 | 0.51 | 0.00 | 96 | 1013.8 |
| 20260507023035 | 5 | 276 | 1.6 | 3.2 | 0.00 | 0.51 | 0.00 | 96 | 1013.7 |
| 20260507021513 | 5 | 276 | 0.0 | 1.6 | 0.00 | 0.51 | 0.00 | 96 | 1013.6 |
| 20260507014533 | 4 | 304 | 1.6 | 3.2 | 0.00 | 0.61 | 0.00 | 95 | 1013.5 |
| 20260507013003 | 4 | 11 | 1.6 | 3.2 | 0.00 | 0.61 | 0.00 | 95 | 1013.4 |
| 20260507011542 | 4 | 11 | 0.0 | 3.2 | 0.00 | 0.61 | 0.00 | 95 | 1013.4 |
| 20260507010004 | 5 | 11 | 0.0 | 1.6 | 0.00 | 0.66 | 0.00 | 95 | 1013.3 |
| 20260507004544 | 5 | 11 | 0.0 | 1.6 | 0.00 | 0.66 | 0.00 | 94 | 1013.3 |
| 20260507003016 | 5 | 11 | 0.0 | 1.6 | 0.00 | 0.66 | 0.00 | 94 | 1013.3 |
| 20260507001611 | 5 | 11 | 0.0 | 0.0 | 0.00 | 0.66 | 0.00 | 94 | 1013.2 |
| 20260507000032 | 6 | 11 | 0.0 | 0.0 | 0.00 | 0.66 | 0.00 | 94 | 1013.2 |
| 20260506234603 | 6 | 11 | 0.0 | 1.6 | 0.00 | 0.71 | 0.00 | 94 | 1013.2 |
| 20260506233032 | 6 | 11 | 0.0 | 3.2 | 0.00 | 0.71 | 0.00 | 93 | 1013.1 |
| 20260506231510 | 6 | 11 | 0.0 | 1.6 | 0.00 | 0.71 | 0.00 | 92 | 1013.0 |
| 20260506230056 | 6 | 11 | 0.0 | 0.0 | 0.00 | 0.71 | 0.00 | 92 | 1012.8 |
| 20260506224525 | 6 | 11 | 0.0 | 1.6 | 0.00 | 0.79 | 0.71 | 91 | 1012.8 |
| 20260506223029 | 7 | 318 | 1.6 | 6.4 | 0.00 | 0.79 | 0.71 | 91 | 1012.7 |
| 20260506221517 | 7 | 9 | 6.4 | 11.3 | 0.00 | 0.79 | 0.71 | 91 | 1012.5 |
| 20260506220057 | 8 | 350 | 1.6 | 6.4 | 0.00 | 0.79 | 0.71 | 91 | 1012.4 |
| 20260506214544 | 8 | 360 | 4.8 | 9.7 | 0.00 | 0.81 | 0.71 | 91 | 1012.4 |
| 20260506213019 | 8 | 355 | 4.8 | 9.7 | 0.00 | 0.81 | 0.71 | 91 | 1012.4 |
| 20260506211507 | 8 | 15 | 3.2 | 9.7 | 0.00 | 0.81 | 0.71 | 92 | 1012.3 |
| 20260506210057 | 8 | 355 | 4.8 | 8.0 | 0.00 | 0.81 | 0.71 | 93 | 1012.1 |
| 20260506204545 | 9 | 25 | 3.2 | 8.0 | 0.00 | 0.84 | 0.71 | 92 | 1012.0 |
| 20260506203015 | 9 | 30 | 1.6 | 4.8 | 0.00 | 0.84 | 0.71 | 92 | 1011.8 |
| 20260506201557 | 10 | 344 | 0.0 | 3.2 | 0.00 | 0.84 | 0.71 | 92 | 1011.5 |
| 20260506200101 | 10 | 344 | 0.0 | 4.8 | 0.00 | 0.84 | 0.71 | 91 | 1011.5 |
| 20260506194537 | 10 | 254 | 0.0 | 6.4 | 0.00 | 0.89 | 0.71 | 91 | 1011.4 |
| 20260506193032 | 10 | 278 | 0.0 | 4.8 | 0.00 | 0.89 | 0.71 | 91 | 1011.2 |
| 20260506191555 | 10 | 278 | 1.6 | 4.8 | 0.00 | 0.89 | 0.71 | 90 | 1011.0 |
| 20260506190054 | 10 | 309 | 1.6 | 4.8 | 0.00 | 0.89 | 0.71 | 90 | 1010.9 |
| 20260506184549 | 10 | 288 | 0.0 | 4.8 | 0.00 | 0.97 | 0.71 | 91 | 1010.8 |
| 20260506183028 | 10 | 287 | 0.0 | 4.8 | 0.00 | 0.97 | 0.71 | 92 | 1010.7 |
| 20260506181514 | 10 | 309 | 0.0 | 3.2 | 0.00 | 0.97 | 0.71 | 92 | 1010.5 |
| 20260506180030 | 10 | 262 | 0.0 | 3.2 | 0.00 | 0.97 | 0.71 | 92 | 1010.4 |
| 20260506174600 | 10 | 245 | 0.0 | 4.8 | 0.00 | 1.02 | 0.71 | 91 | 1010.3 |
| 20260506173028 | 10 | 283 | 0.0 | 3.2 | 0.00 | 1.02 | 0.71 | 90 | 1010.2 |
| 20260506171555 | 10 | 302 | 1.6 | 8.0 | 0.00 | 1.02 | 0.71 | 89 | 1010.0 |
| 20260506170027 | 11 | 265 | 1.6 | 6.4 | 0.00 | 1.02 | 0.71 | 89 | 1009.9 |
| 20260506164620 | 11 | 259 | 1.6 | 6.4 | 0.00 | 1.04 | 0.71 | 88 | 1009.8 |
| 20260506163022 | 11 | 306 | 1.6 | 9.7 | 0.00 | 1.04 | 0.71 | 88 | 1009.7 |
| 20260506161512 | 11 | 291 | 4.8 | 11.3 | 0.00 | 1.04 | 0.71 | 90 | 1009.8 |
| 20260506160007 | 11 | 269 | 3.2 | 8.0 | 0.00 | 1.04 | 0.71 | 91 | 1009.8 |
| 20260506154542 | 11 | 277 | 0.0 | 6.4 | 0.00 | 1.04 | 0.71 | 93 | 1009.8 |
| 20260506153030 | 11 | 248 | 1.6 | 6.4 | 0.00 | 1.04 | 0.71 | 91 | 1009.9 |
| 20260506151517 | 11 | 257 | 3.2 | 6.4 | 0.00 | 1.04 | 0.71 | 91 | 1009.8 |
| 20260506150010 | 11 | 239 | 3.2 | 9.7 | 0.00 | 1.04 | 0.71 | 90 | 1009.9 |
| 20260506144545 | 11 | 319 | 0.0 | 8.0 | 0.00 | 1.04 | 0.71 | 90 | 1009.8 |
| 20260506143013 | 11 | 277 | 0.0 | 6.4 | 0.00 | 1.04 | 0.71 | 92 | 1009.8 |
| 20260506141544 | 11 | 279 | 0.0 | 6.4 | 0.00 | 1.04 | 0.71 | 93 | 1009.8 |
| 20260506140010 | 11 | 355 | 3.2 | 6.4 | 0.00 | 1.04 | 0.71 | 94 | 1009.8 |
| 20260506134537 | 11 | 262 | 1.6 | 11.3 | 0.00 | 1.04 | 0.71 | 96 | 1009.8 |
| 20260506133007 | 10 | 306 | 4.8 | 11.3 | 0.00 | 1.04 | 0.71 | 97 | 1009.8 |
| 20260506131544 | 10 | 247 | 1.6 | 11.3 | 0.00 | 1.04 | 0.71 | 98 | 1009.8 |
| 20260506130009 | 10 | 338 | 1.6 | 11.3 | 0.00 | 1.04 | 0.71 | 98 | 1009.6 |
| 20260506124557 | 10 | 315 | 4.8 | 16.1 | 0.00 | 1.04 | 0.71 | 98 | 1009.6 |
| 20260506123024 | 9 | 321 | 1.6 | 20.9 | 0.00 | 1.04 | 0.71 | 98 | 1009.5 |
| 20260506121601 | 10 | 9 | 9.7 | 16.1 | 0.00 | 1.04 | 0.71 | 98 | 1009.3 |
| 20260506121503 | 10 | 5 | 11.3 | 16.1 | 0.00 | 1.04 | 0.71 | 99 | 1009.3 |
| 20260506120050 | 10 | 24 | 11.3 | 20.9 | 0.00 | 1.04 | 0.71 | 99 | 1009.3 |
| 20260506114513 | 9 | 350 | 11.3 | 19.3 | 0.00 | 1.04 | 0.71 | 98 | 1009.2 |
| 20260506113038 | 9 | 5 | 12.9 | 22.5 | 0.03 | 1.04 | 0.71 | 99 | 1009.1 |
| 20260506111512 | 9 | 5 | 14.5 | 22.5 | 0.03 | 1.04 | 0.71 | 99 | 1009.0 |
| 20260506110052 | 9 | 11 | 11.3 | 24.1 | 0.03 | 1.04 | 0.71 | 99 | 1009.1 |
| 20260506104536 | 9 | 355 | 11.3 | 16.1 | 0.03 | 1.09 | 0.71 | 99 | 1009.0 |
| 20260506103057 | 8 | 344 | 4.8 | 14.5 | 0.03 | 1.07 | 0.71 | 98 | 1009.1 |
| 20260506101531 | 8 | 360 | 6.4 | 9.7 | 0.05 | 1.07 | 0.71 | 98 | 1009.2 |